| time (UTC) | temp F | wind direction | speed MPH | gust MPH | rain 1hr in | rain 24hr in | rain mn in | humidity % | barometer mb |
| 20260507101507 | 42 | 267 | 6.0 | 7.0 | 0.00 | 0.00 | 0.00 | 89 | 1012.1 |
| 20260507101008 | 42 | 259 | 7.0 | 7.0 | 0.00 | 0.00 | 0.00 | 89 | 1012.1 |
| 20260507100508 | 42 | 263 | 5.0 | 7.0 | 0.00 | 0.00 | 0.00 | 89 | 1012.1 |
| 20260507095008 | 42 | 257 | 7.0 | 7.0 | 0.00 | 0.00 | 0.00 | 89 | 1012.1 |
| 20260507094507 | 42 | 261 | 5.0 | 7.0 | 0.00 | 0.00 | 0.00 | 89 | 1012.1 |
| 20260507093508 | 42 | 252 | 5.0 | 7.0 | 0.00 | 0.00 | 0.00 | 89 | 1012.1 |
| 20260507093008 | 42 | 245 | 5.0 | 7.0 | 0.00 | 0.00 | 0.00 | 89 | 1012.1 |
| 20260507092008 | 42 | 246 | 5.0 | 7.0 | 0.00 | 0.00 | 0.00 | 89 | 1012.1 |
| 20260507091008 | 42 | 245 | 5.0 | 7.0 | 0.00 | 0.00 | 0.00 | 89 | 1012.1 |
| 20260507090007 | 42 | 260 | 5.0 | 5.0 | 0.00 | 0.00 | 0.00 | 89 | 1012.1 |
| 20260507085508 | 42 | 275 | 2.0 | 5.0 | 0.00 | 0.00 | 0.00 | 89 | 1012.1 |
| 20260507085008 | 42 | 245 | 2.0 | 5.0 | 0.00 | 0.00 | 0.00 | 89 | 1012.1 |
| 20260507084507 | 42 | 268 | 2.0 | 5.0 | 0.00 | 0.00 | 0.00 | 89 | 1012.1 |
| 20260507084008 | 42 | 254 | 5.0 | 5.0 | 0.00 | 0.00 | 0.00 | 89 | 1012.1 |
| 20260507083508 | 42 | 253 | 5.0 | 5.0 | 0.00 | 0.00 | 0.00 | 89 | 1012.1 |
| 20260507083008 | 42 | 254 | 5.0 | 5.0 | 0.00 | 0.00 | 0.00 | 89 | 1012.1 |
| 20260507082507 | 42 | 247 | 5.0 | 5.0 | 0.00 | 0.00 | 0.00 | 88 | 1012.1 |
| 20260507082008 | 42 | 256 | 5.0 | 5.0 | 0.00 | 0.00 | 0.00 | 87 | 1012.1 |
| 20260507081507 | 42 | 241 | 5.0 | 5.0 | 0.00 | 0.00 | 0.00 | 87 | 1012.1 |
| 20260507081008 | 42 | 260 | 5.0 | 5.0 | 0.00 | 0.00 | 0.00 | 86 | 1012.1 |
| 20260507080508 | 42 | 259 | 5.0 | 5.0 | 0.00 | 0.00 | 0.00 | 86 | 1012.1 |
| 20260507080007 | 42 | 255 | 5.0 | 5.0 | 0.00 | 0.00 | 0.00 | 85 | 1012.1 |
| 20260507075507 | 42 | 230 | 5.0 | 5.0 | 0.00 | 0.00 | 0.00 | 86 | 1012.1 |
| 20260507075007 | 43 | 259 | 5.0 | 7.0 | 0.00 | 0.00 | 0.00 | 86 | 1012.1 |
| 20260507074507 | 42 | 248 | 5.0 | 7.0 | 0.00 | 0.00 | 0.00 | 87 | 1012.1 |
| 20260507074007 | 42 | 236 | 5.0 | 7.0 | 0.00 | 0.00 | 0.00 | 87 | 1012.1 |
| 20260507073508 | 42 | 232 | 5.0 | 7.0 | 0.00 | 0.00 | 0.00 | 87 | 1012.1 |
| 20260507073009 | 42 | 253 | 5.0 | 7.0 | 0.00 | 0.00 | 0.00 | 87 | 1012.1 |
| 20260507072008 | 43 | 267 | 5.0 | 7.0 | 0.00 | 0.00 | 0.00 | 87 | 1012.1 |
| 20260507071507 | 43 | 259 | 6.0 | 7.0 | 0.00 | 0.00 | 0.00 | 87 | 1012.1 |
| 20260507071007 | 43 | 264 | 7.0 | 7.0 | 0.00 | 0.00 | 0.00 | 87 | 1012.1 |
| 20260507070508 | 43 | 263 | 7.0 | 9.0 | 0.00 | 0.00 | 0.00 | 88 | 1012.1 |
| 20260507070010 | 43 | 269 | 7.0 | 9.0 | 0.00 | 0.00 | 0.00 | 88 | 1012.1 |
| 20260507065506 | 43 | 261 | 7.0 | 9.0 | 0.00 | 0.00 | 0.00 | 89 | 1012.1 |
| 20260507065008 | 43 | 273 | 7.0 | 9.0 | 0.00 | 0.00 | 0.00 | 89 | 1012.1 |
| 20260507064507 | 43 | 264 | 7.0 | 9.0 | 0.00 | 0.00 | 0.00 | 89 | 1012.1 |
| 20260507064007 | 43 | 266 | 7.0 | 9.0 | 0.00 | 0.00 | 0.00 | 89 | 1012.1 |
| 20260507063507 | 43 | 269 | 7.0 | 9.0 | 0.00 | 0.00 | 0.00 | 90 | 1012.1 |
| 20260507063007 | 43 | 260 | 7.0 | 7.0 | 0.00 | 0.00 | 0.00 | 90 | 1012.1 |
| 20260507062507 | 43 | 255 | 7.0 | 7.0 | 0.00 | 0.00 | 0.00 | 90 | 1012.1 |
| 20260507062008 | 43 | 275 | 7.0 | 7.0 | 0.00 | 0.00 | 0.00 | 91 | 1012.1 |
| 20260507061507 | 44 | 261 | 7.0 | 7.0 | 0.00 | 0.00 | 0.00 | 91 | 1012.1 |
| 20260507061008 | 44 | 263 | 7.0 | 9.0 | 0.00 | 0.00 | 0.00 | 91 | 1012.1 |
| 20260507060007 | 44 | 263 | 7.0 | 9.0 | 0.00 | 0.00 | 0.00 | 92 | 1012.1 |
| 20260507055007 | 44 | 254 | 7.0 | 7.0 | 0.00 | 0.00 | 0.00 | 92 | 1012.1 |
| 20260507054507 | 44 | 266 | 7.0 | 9.0 | 0.00 | 0.00 | 0.00 | 92 | 1012.1 |
| 20260507054008 | 44 | 258 | 7.0 | 9.0 | 0.00 | 0.00 | 0.00 | 92 | 1012.1 |
| 20260507053508 | 44 | 242 | 7.0 | 9.0 | 0.00 | 0.00 | 0.00 | 92 | 1012.1 |
| 20260507053008 | 44 | 239 | 7.0 | 9.0 | 0.00 | 0.00 | 0.00 | 92 | 1012.1 |
| 20260507052507 | 44 | 250 | 7.0 | 9.0 | 0.00 | 0.00 | 0.00 | 92 | 1012.1 |
| 20260507052007 | 44 | 250 | 7.0 | 9.0 | 0.00 | 0.00 | 0.00 | 92 | 1012.1 |
| 20260507051507 | 44 | 253 | 7.0 | 9.0 | 0.00 | 0.00 | 0.00 | 92 | 1012.1 |
| 20260507050507 | 44 | 240 | 9.0 | 9.0 | 0.00 | 0.00 | 0.00 | 92 | 1012.8 |
| 20260507045007 | 44 | 252 | 7.0 | 7.0 | 0.00 | 0.00 | 0.00 | 92 | 1012.1 |
| 20260507044008 | 44 | 262 | 7.0 | 7.0 | 0.00 | 0.00 | 0.00 | 92 | 1012.1 |
| 20260507043508 | 44 | 252 | 7.0 | 7.0 | 0.00 | 0.00 | 0.00 | 92 | 1012.4 |
| 20260507043008 | 44 | 261 | 7.0 | 7.0 | 0.00 | 0.00 | 0.00 | 92 | 1012.1 |
| 20260507042507 | 44 | 269 | 7.0 | 7.0 | 0.00 | 0.00 | 0.00 | 92 | 1012.1 |
| 20260507042007 | 44 | 265 | 5.0 | 7.0 | 0.00 | 0.00 | 0.00 | 92 | 1012.1 |
| 20260507041007 | 44 | 263 | 7.0 | 9.0 | 0.00 | 0.00 | 0.00 | 93 | 1012.1 |
| 20260507040507 | 44 | 265 | 7.0 | 9.0 | 0.00 | 0.00 | 0.00 | 93 | 1012.1 |
| 20260507040007 | 45 | 265 | 7.0 | 9.0 | 0.00 | 0.00 | 0.00 | 93 | 1012.1 |
| 20260507035507 | 45 | 264 | 7.0 | 9.0 | 0.00 | 0.00 | 0.00 | 94 | 1012.1 |
| 20260507035007 | 45 | 271 | 7.0 | 9.0 | 0.00 | 0.00 | 0.00 | 95 | 1012.1 |
| 20260507034506 | 45 | 274 | 7.0 | 9.0 | 0.00 | 0.00 | 0.00 | 95 | 1012.1 |
| 20260507034008 | 45 | 270 | 7.0 | 9.0 | 0.00 | 0.00 | 0.00 | 96 | 1012.1 |
| 20260507033508 | 45 | 253 | 7.0 | 9.0 | 0.00 | 0.00 | 0.00 | 96 | 1012.1 |
| 20260507033007 | 45 | 265 | 8.0 | 9.0 | 0.00 | 0.00 | 0.00 | 97 | 1012.1 |
| 20260507032507 | 45 | 261 | 9.0 | 9.0 | 0.00 | 0.00 | 0.00 | 97 | 1012.1 |
| 20260507032007 | 45 | 264 | 7.0 | 9.0 | 0.00 | 0.00 | 0.00 | 97 | 1012.1 |
| 20260507031507 | 45 | 265 | 9.0 | 9.0 | 0.00 | 0.00 | 0.00 | 97 | 1012.1 |
| 20260507031008 | 45 | 256 | 9.0 | 9.0 | 0.00 | 0.00 | 0.00 | 98 | 1012.1 |
| 20260507030507 | 45 | 270 | 9.0 | 9.0 | 0.00 | 0.00 | 0.00 | 98 | 1012.1 |
| 20260507030006 | 45 | 259 | 9.0 | 9.0 | 0.00 | 0.00 | 0.00 | 99 | 1012.1 |
| 20260507025507 | 45 | 266 | 7.0 | 9.0 | 0.00 | 0.00 | 0.00 | 99 | 1012.1 |
| 20260507025008 | 45 | 269 | 7.0 | 9.0 | 0.00 | 0.00 | 0.00 | 99 | 1012.1 |
| 20260507024507 | 45 | 275 | 7.0 | 9.0 | 0.00 | 0.00 | 0.00 | 99 | 1012.1 |
| 20260507024008 | 45 | 292 | 7.0 | 9.0 | 0.00 | 0.00 | 0.00 | 99 | 1012.1 |
| 20260507023507 | 45 | 275 | 7.0 | 9.0 | 0.00 | 0.00 | 0.00 | 99 | 1012.1 |
| 20260507023007 | 45 | 271 | 7.0 | 9.0 | 0.00 | 0.00 | 0.00 | 99 | 1012.1 |
| 20260507022507 | 45 | 258 | 7.0 | 9.0 | 0.00 | 0.00 | 0.00 | 99 | 1012.1 |
| 20260507022006 | 45 | 262 | 7.0 | 9.0 | 0.00 | 0.00 | 0.00 | 99 | 1012.1 |
| 20260507021507 | 44 | 263 | 7.0 | 9.0 | 0.00 | 0.00 | 0.00 | 99 | 1012.1 |
| 20260507021007 | 44 | 263 | 7.0 | 9.0 | 0.00 | 0.00 | 0.00 | 99 | 1012.1 |
| 20260507020507 | 45 | 250 | 9.0 | 9.0 | 0.00 | 0.00 | 0.00 | 99 | 1012.1 |
| 20260507020006 | 44 | 254 | 9.0 | 12.0 | 0.00 | 0.00 | 0.00 | 99 | 1012.1 |
| 20260507015507 | 44 | 245 | 9.0 | 12.0 | 0.00 | 0.00 | 0.00 | 99 | 1012.1 |
| 20260507015007 | 44 | 258 | 9.0 | 12.0 | 0.00 | 0.00 | 0.00 | 99 | 1012.1 |
| 20260507014507 | 44 | 253 | 9.0 | 12.0 | 0.00 | 0.00 | 0.00 | 99 | 1012.1 |
| 20260507013508 | 44 | 245 | 9.0 | 12.0 | 0.00 | 0.00 | 0.00 | 99 | 1012.1 |
| 20260507012506 | 44 | 233 | 9.0 | 9.0 | 0.00 | 0.00 | 0.00 | 99 | 1012.1 |
| 20260507012008 | 44 | 247 | 9.0 | 9.0 | 0.00 | 0.00 | 0.00 | 99 | 1012.1 |
| 20260507011506 | 44 | 250 | 9.0 | 9.0 | 0.00 | 0.00 | 0.00 | 99 | 1012.1 |
| 20260507010507 | 44 | 242 | 7.0 | 9.0 | 0.00 | 0.00 | 0.00 | 99 | 1012.1 |
| 20260507010006 | 44 | 250 | 7.0 | 9.0 | 0.00 | 0.00 | 0.00 | 99 | 1012.1 |
| 20260507005506 | 44 | 238 | 7.0 | 9.0 | 0.00 | 0.00 | 0.00 | 99 | 1012.1 |
| 20260507005007 | 44 | 260 | 7.0 | 9.0 | 0.00 | 0.00 | 0.00 | 99 | 1012.1 |
| 20260507004506 | 44 | 263 | 7.0 | 9.0 | 0.00 | 0.00 | 0.00 | 98 | 1012.1 |
| 20260507004007 | 44 | 280 | 7.0 | 9.0 | 0.00 | 0.00 | 0.00 | 98 | 1012.1 |
| 20260507003507 | 44 | 266 | 7.0 | 9.0 | 0.00 | 0.00 | 0.00 | 98 | 1012.1 |
| 20260507002507 | 44 | 279 | 6.0 | 7.0 | 0.00 | 0.00 | 0.00 | 97 | 1012.1 |
| 20260507002007 | 44 | 305 | 5.0 | 9.0 | 0.00 | 0.00 | 0.00 | 97 | 1012.1 |
| 20260507001506 | 43 | 292 | 5.0 | 9.0 | 0.00 | 0.00 | 0.00 | 97 | 1012.0 |
| 20260507000507 | 43 | 305 | 4.0 | 7.0 | 0.00 | 0.00 | 0.00 | 97 | 1011.2 |
| 20260507000006 | 43 | 302 | 5.0 | 7.0 | 0.00 | 0.00 | 0.00 | 97 | 1011.1 |
| 20260506235507 | 43 | 303 | 4.0 | 7.0 | 0.00 | 0.00 | 0.00 | 97 | 1011.1 |
| 20260506235007 | 43 | 281 | 5.0 | 9.0 | 0.00 | 0.00 | 0.00 | 97 | 1011.1 |
| 20260506234507 | 43 | 288 | 5.0 | 14.0 | 0.00 | 0.00 | 0.00 | 97 | 1011.1 |
| 20260506234007 | 43 | 303 | 5.0 | 14.0 | 0.00 | 0.00 | 0.00 | 96 | 1010.1 |
| 20260506233506 | 44 | 307 | 5.0 | 9.0 | 0.00 | 0.00 | 0.00 | 96 | 1011.1 |
| 20260506233007 | 44 | 331 | 5.0 | 9.0 | 0.00 | 0.00 | 0.00 | 96 | 1010.1 |
| 20260506232506 | 45 | 287 | 2.0 | 7.0 | 0.00 | 0.00 | 0.00 | 97 | 1010.6 |
| 20260506232007 | 45 | 323 | 1.0 | 5.0 | 0.00 | 0.00 | 0.00 | 97 | 1010.1 |
| 20260506231507 | 45 | 352 | 2.0 | 5.0 | 0.00 | 0.00 | 0.00 | 97 | 1010.1 |
| 20260506230507 | 45 | 20 | 5.0 | 5.0 | 0.00 | 0.00 | 0.00 | 97 | 1010.1 |
| 20260506230007 | 45 | 14 | 2.0 | 5.0 | 0.00 | 0.00 | 0.00 | 97 | 1010.1 |
| 20260506225007 | 46 | 52 | 5.0 | 5.0 | 0.00 | 0.00 | 0.00 | 97 | 1010.1 |
| 20260506224506 | 46 | 46 | 2.0 | 5.0 | 0.00 | 0.00 | 0.00 | 97 | 1009.1 |
| 20260506224007 | 46 | 70 | 2.0 | 5.0 | 0.00 | 0.00 | 0.00 | 97 | 1009.1 |
| 20260506223506 | 46 | 84 | 2.0 | 5.0 | 0.00 | 0.00 | 0.00 | 97 | 1010.1 |
| 20260506222507 | 47 | 90 | 2.0 | 5.0 | 0.00 | 0.00 | 0.00 | 98 | 1009.1 |
| 20260506221506 | 47 | 125 | 2.0 | 5.0 | 0.00 | 0.00 | 0.00 | 99 | 1009.1 |
| 20260506221007 | 46 | 121 | 2.0 | 5.0 | 0.00 | 0.00 | 0.00 | 99 | 1009.1 |
| 20260506220506 | 46 | 115 | 0.0 | 5.0 | 0.00 | 0.00 | 0.00 | 99 | 1009.1 |
| 20260506215507 | 46 | 121 | 2.0 | 5.0 | 0.00 | 0.00 | 0.00 | 100 | 1009.1 |
| 20260506215007 | 46 | 121 | 2.0 | 7.0 | 0.00 | 0.00 | 0.00 | 100 | 1009.1 |
| 20260506214507 | 46 | 127 | 3.0 | 7.0 | 0.00 | 0.00 | 0.00 | 100 | 1009.1 |
| 20260506214007 | 46 | 118 | 5.0 | 7.0 | 0.00 | 0.00 | 0.00 | 100 | 1009.1 |
| 20260506213507 | 46 | 112 | 5.0 | 7.0 | 0.00 | 0.00 | 0.00 | 100 | 1009.1 |
| 20260506213006 | 46 | 103 | 5.0 | 7.0 | 0.00 | 0.00 | 0.00 | 100 | 1009.1 |
| 20260506212506 | 46 | 101 | 6.0 | 9.0 | 0.00 | 0.00 | 0.00 | 100 | 1009.1 |
| 20260506212007 | 45 | 96 | 7.0 | 9.0 | 0.00 | 0.00 | 0.00 | 100 | 1009.1 |
| 20260506211507 | 46 | 94 | 6.0 | 9.0 | 0.00 | 0.00 | 0.00 | 100 | 1009.1 |
| 20260506211007 | 45 | 101 | 7.0 | 9.0 | 0.00 | 0.00 | 0.00 | 100 | 1009.1 |
| 20260506210507 | 46 | 101 | 7.0 | 9.0 | 0.00 | 0.00 | 0.00 | 100 | 1009.1 |
| 20260506210006 | 46 | 101 | 7.0 | 9.0 | 0.00 | 0.00 | 0.00 | 100 | 1009.1 |
| 20260506205506 | 46 | 92 | 5.0 | 9.0 | 0.00 | 0.00 | 0.00 | 100 | 1009.1 |
| 20260506205008 | 46 | 92 | 5.0 | 9.0 | 0.00 | 0.00 | 0.00 | 100 | 1009.1 |
| 20260506204506 | 46 | 69 | 5.0 | 9.0 | 0.00 | 0.00 | 0.00 | 100 | 1009.1 |
| 20260506204007 | 46 | 86 | 5.0 | 7.0 | 0.00 | 0.00 | 0.00 | 100 | 1009.1 |
| 20260506203506 | 46 | 103 | 5.0 | 7.0 | 0.00 | 0.00 | 0.00 | 100 | 1009.1 |
| 20260506203007 | 46 | 87 | 5.0 | 7.0 | 0.00 | 0.00 | 0.00 | 100 | 1009.1 |
| 20260506202507 | 47 | 91 | 2.0 | 7.0 | 0.00 | 0.00 | 0.00 | 100 | 1009.1 |
| 20260506202007 | 47 | 117 | 5.0 | 7.0 | 0.00 | 0.00 | 0.00 | 100 | 1009.1 |
| 20260506201506 | 47 | 100 | 2.0 | 5.0 | 0.00 | 0.00 | 0.00 | 100 | 1009.1 |
| 20260506201007 | 47 | 106 | 2.0 | 7.0 | 0.00 | 0.00 | 0.00 | 100 | 1009.1 |
| 20260506200507 | 47 | 124 | 2.0 | 7.0 | 0.00 | 0.00 | 0.00 | 100 | 1009.1 |
| 20260506200006 | 47 | 105 | 5.0 | 7.0 | 0.00 | 0.00 | 0.00 | 100 | 1009.1 |
| 20260506195506 | 46 | 110 | 5.0 | 7.0 | 0.00 | 0.00 | 0.00 | 100 | 1009.1 |
| 20260506195007 | 46 | 102 | 5.0 | 7.0 | 0.00 | 0.00 | 0.00 | 100 | 1009.1 |
| 20260506194506 | 46 | 82 | 5.0 | 7.0 | 0.00 | 0.00 | 0.00 | 100 | 1009.1 |
| 20260506194006 | 46 | 84 | 5.0 | 5.0 | 0.00 | 0.00 | 0.00 | 100 | 1009.1 |
| 20260506193506 | 45 | 90 | 5.0 | 5.0 | 0.00 | 0.00 | 0.00 | 100 | 1009.1 |
| 20260506193007 | 45 | 89 | 5.0 | 5.0 | 0.00 | 0.00 | 0.00 | 100 | 1009.1 |
| 20260506192506 | 45 | 81 | 2.0 | 5.0 | 0.00 | 0.00 | 0.00 | 100 | 1009.1 |
| 20260506192006 | 45 | 78 | 2.0 | 5.0 | 0.00 | 0.00 | 0.00 | 100 | 1009.1 |
| 20260506191506 | 45 | 102 | 2.0 | 5.0 | 0.00 | 0.00 | 0.00 | 100 | 1009.1 |
| 20260506191006 | 46 | 92 | 2.0 | 5.0 | 0.00 | 0.00 | 0.00 | 100 | 1009.1 |
| 20260506190507 | 46 | 81 | 3.0 | 5.0 | 0.00 | 0.00 | 0.00 | 100 | 1009.1 |
| 20260506185506 | 46 | 69 | 2.0 | 5.0 | 0.00 | 0.00 | 0.00 | 100 | 1009.1 |
| 20260506185006 | 46 | 66 | 2.0 | 5.0 | 0.00 | 0.00 | 0.00 | 100 | 1009.1 |
| 20260506184505 | 46 | 78 | 2.0 | 5.0 | 0.00 | 0.00 | 0.00 | 100 | 1009.1 |
| 20260506184007 | 45 | 51 | 2.0 | 5.0 | 0.00 | 0.00 | 0.00 | 100 | 1009.1 |
| 20260506183006 | 45 | 63 | 2.0 | 5.0 | 0.00 | 0.00 | 0.00 | 100 | 1009.1 |
| 20260506182506 | 45 | 43 | 2.0 | 5.0 | 0.00 | 0.00 | 0.00 | 100 | 1009.1 |
| 20260506181506 | 45 | 29 | 0.0 | 0.0 | 0.00 | 0.00 | 0.00 | 100 | 1010.1 |
| 20260506181006 | 45 | 63 | 0.0 | 0.0 | 0.00 | 0.00 | 0.00 | 100 | 1010.1 |
| 20260506180507 | 45 | 42 | 0.0 | 2.0 | 0.00 | 0.00 | 0.00 | 100 | 1010.1 |
| 20260506180007 | 44 | 22 | 0.0 | 5.0 | 0.00 | 0.00 | 0.00 | 100 | 1010.1 |
| 20260506175506 | 44 | 13 | 1.0 | 5.0 | 0.00 | 0.00 | 0.00 | 100 | 1010.1 |
| 20260506175007 | 44 | 28 | 2.0 | 5.0 | 0.00 | 0.00 | 0.00 | 100 | 1010.1 |
| 20260506174007 | 44 | 31 | 2.0 | 5.0 | 0.00 | 0.00 | 0.00 | 100 | 1010.1 |
| 20260506173507 | 44 | 38 | 2.0 | 5.0 | 0.00 | 0.00 | 0.00 | 100 | 1009.1 |
| 20260506173006 | 44 | 28 | 5.0 | 7.0 | 0.00 | 0.00 | 0.00 | 100 | 1009.1 |
| 20260506172506 | 44 | 9 | 5.0 | 7.0 | 0.00 | 0.00 | 0.00 | 100 | 1009.1 |
| 20260506172006 | 44 | 26 | 5.0 | 7.0 | 0.00 | 0.00 | 0.00 | 100 | 1009.1 |
| 20260506171505 | 44 | 22 | 5.0 | 5.0 | 0.00 | 0.00 | 0.00 | 100 | 1009.1 |
| 20260506171006 | 44 | 32 | 5.0 | 5.0 | 0.00 | 0.00 | 0.00 | 100 | 1009.1 |
| 20260506170507 | 44 | 36 | 5.0 | 5.0 | 0.00 | 0.00 | 0.00 | 100 | 1009.1 |
| 20260506170005 | 44 | 28 | 5.0 | 5.0 | 0.00 | 0.00 | 0.00 | 100 | 1009.1 |
| 20260506165506 | 44 | 43 | 5.0 | 5.0 | 0.00 | 0.00 | 0.00 | 100 | 1009.1 |
| 20260506165007 | 44 | 36 | 5.0 | 5.0 | 0.00 | 0.00 | 0.00 | 100 | 1009.1 |
| 20260506164505 | 44 | 37 | 5.0 | 5.0 | 0.00 | 0.00 | 0.00 | 100 | 1009.1 |
| 20260506164006 | 44 | 40 | 5.0 | 5.0 | 0.00 | 0.00 | 0.00 | 100 | 1009.1 |
| 20260506163006 | 44 | 48 | 5.0 | 7.0 | 0.00 | 0.00 | 0.00 | 100 | 1009.1 |
| 20260506162506 | 44 | 51 | 5.0 | 5.0 | 0.00 | 0.00 | 0.00 | 100 | 1009.1 |
| 20260506162006 | 44 | 47 | 5.0 | 5.0 | 0.00 | 0.00 | 0.00 | 100 | 1009.1 |
| 20260506161505 | 44 | 51 | 5.0 | 5.0 | 0.00 | 0.00 | 0.00 | 100 | 1009.1 |
| 20260506161006 | 44 | 53 | 5.0 | 7.0 | 0.00 | 0.00 | 0.00 | 100 | 1009.1 |
| 20260506160506 | 43 | 59 | 5.0 | 7.0 | 0.00 | 0.00 | 0.00 | 100 | 1009.1 |
| 20260506160006 | 43 | 55 | 5.0 | 7.0 | 0.00 | 0.00 | 0.00 | 100 | 1009.1 |
| 20260506155506 | 43 | 48 | 5.0 | 7.0 | 0.00 | 0.00 | 0.00 | 100 | 1009.1 |
| 20260506155006 | 43 | 49 | 5.0 | 7.0 | 0.00 | 0.00 | 0.00 | 100 | 1009.1 |
| 20260506154506 | 43 | 48 | 5.0 | 7.0 | 0.00 | 0.00 | 0.00 | 100 | 1009.1 |
| 20260506154006 | 43 | 49 | 5.0 | 7.0 | 0.00 | 0.00 | 0.00 | 100 | 1009.1 |
| 20260506153506 | 43 | 58 | 5.0 | 7.0 | 0.00 | 0.00 | 0.00 | 100 | 1009.1 |
| 20260506153006 | 43 | 50 | 7.0 | 7.0 | 0.00 | 0.00 | 0.00 | 100 | 1009.1 |
| 20260506152506 | 43 | 53 | 7.0 | 7.0 | 0.00 | 0.00 | 0.00 | 100 | 1009.1 |
| 20260506152006 | 43 | 60 | 7.0 | 7.0 | 0.00 | 0.00 | 0.00 | 100 | 1009.1 |
| 20260506151006 | 43 | 55 | 5.0 | 7.0 | 0.00 | 0.00 | 0.00 | 100 | 1009.1 |
| 20260506150506 | 43 | 57 | 7.0 | 7.0 | 0.00 | 0.00 | 0.00 | 100 | 1009.1 |
| 20260506145505 | 43 | 50 | 7.0 | 7.0 | 0.00 | 0.00 | 0.00 | 100 | 1009.1 |
| 20260506145006 | 43 | 53 | 7.0 | 7.0 | 0.00 | 0.00 | 0.00 | 100 | 1009.1 |
| 20260506144006 | 43 | 57 | 7.0 | 7.0 | 0.00 | 0.00 | 0.00 | 100 | 1009.1 |
| 20260506143006 | 43 | 52 | 7.0 | 7.0 | 0.00 | 0.00 | 0.00 | 100 | 1009.1 |
| 20260506142506 | 43 | 58 | 7.0 | 9.0 | 0.00 | 0.00 | 0.00 | 100 | 1009.1 |
| 20260506142006 | 43 | 60 | 7.0 | 12.0 | 0.00 | 0.00 | 0.00 | 100 | 1009.1 |
| 20260506141505 | 43 | 60 | 8.0 | 12.0 | 0.00 | 0.00 | 0.00 | 100 | 1009.1 |
| 20260506141006 | 43 | 71 | 9.0 | 12.0 | 0.00 | 0.00 | 0.00 | 100 | 1009.1 |
| 20260506140506 | 43 | 93 | 9.0 | 12.0 | 0.00 | 0.00 | 0.00 | 100 | 1009.0 |
| 20260506140005 | 43 | 84 | 9.0 | 12.0 | 0.00 | 0.00 | 0.00 | 100 | 1008.6 |
| 20260506135505 | 43 | 111 | 7.0 | 12.0 | 0.00 | 0.00 | 0.00 | 100 | 1009.1 |
| 20260506134505 | 43 | 89 | 7.0 | 14.0 | 0.00 | 0.00 | 0.00 | 100 | 1009.1 |
| 20260506133506 | 43 | 94 | 9.0 | 12.0 | 0.00 | 0.00 | 0.00 | 100 | 1008.1 |
| 20260506133006 | 43 | 96 | 9.0 | 12.0 | 0.00 | 0.00 | 0.00 | 100 | 1009.1 |
| 20260506132506 | 43 | 103 | 9.0 | 12.0 | 0.00 | 0.00 | 0.00 | 100 | 1008.1 |
| 20260506132006 | 43 | 98 | 7.0 | 12.0 | 0.00 | 0.00 | 0.00 | 100 | 1008.1 |
| 20260506131506 | 43 | 106 | 8.0 | 12.0 | 0.00 | 0.00 | 0.00 | 100 | 1008.1 |
| 20260506131006 | 44 | 100 | 7.0 | 9.0 | 0.00 | 0.00 | 0.00 | 100 | 1008.1 |
| 20260506130506 | 44 | 117 | 7.0 | 9.0 | 0.00 | 0.00 | 0.00 | 100 | 1008.1 |
| 20260506130006 | 44 | 97 | 5.0 | 12.0 | 0.00 | 0.00 | 0.00 | 100 | 1008.1 |
| 20260506125505 | 43 | 114 | 5.0 | 12.0 | 0.00 | 0.00 | 0.00 | 100 | 1008.1 |
| 20260506125006 | 44 | 107 | 7.0 | 12.0 | 0.00 | 0.00 | 0.00 | 100 | 1008.1 |
| 20260506124006 | 44 | 130 | 7.0 | 12.0 | 0.00 | 0.00 | 0.00 | 100 | 1008.1 |
| 20260506122505 | 43 | 88 | 9.0 | 14.0 | 0.00 | 0.00 | 0.00 | 100 | 1008.1 |
| 20260506122007 | 44 | 95 | 9.0 | 14.0 | 0.00 | 0.00 | 0.00 | 100 | 1008.1 |
| 20260506121506 | 44 | 99 | 9.0 | 12.0 | 0.00 | 0.00 | 0.00 | 100 | 1008.1 |
| 20260506121007 | 43 | 84 | 7.0 | 12.0 | 0.00 | 0.00 | 0.00 | 100 | 1008.1 |
| 20260506120506 | 43 | 86 | 9.0 | 14.0 | 0.00 | 0.00 | 0.00 | 100 | 1008.1 |
| 20260506120006 | 43 | 98 | 7.0 | 14.0 | 0.00 | 0.00 | 0.00 | 100 | 1008.1 |
| 20260506115506 | 43 | 78 | 9.0 | 12.0 | 0.00 | 0.00 | 0.00 | 100 | 1008.1 |
| 20260506115006 | 43 | 104 | 9.0 | 12.0 | 0.00 | 0.00 | 0.00 | 100 | 1008.1 |
| 20260506114006 | 43 | 85 | 9.0 | 12.0 | 0.00 | 0.00 | 0.00 | 100 | 1008.1 |
| 20260506113506 | 43 | 91 | 7.0 | 12.0 | 0.00 | 0.00 | 0.00 | 100 | 1008.1 |
| 20260506113006 | 43 | 85 | 9.0 | 12.0 | 0.00 | 0.00 | 0.00 | 100 | 1008.1 |
| 20260506112506 | 43 | 95 | 8.0 | 14.0 | 0.00 | 0.00 | 0.00 | 100 | 1008.1 |
| 20260506112006 | 44 | 113 | 9.0 | 14.0 | 0.00 | 0.00 | 0.00 | 100 | 1008.1 |
| 20260506110506 | 44 | 84 | 7.0 | 12.0 | 0.00 | 0.00 | 0.00 | 100 | 1008.1 |
| 20260506110006 | 44 | 128 | 7.0 | 12.0 | 0.00 | 0.00 | 0.00 | 100 | 1008.1 |
| 20260506105506 | 44 | 85 | 9.0 | 12.0 | 0.00 | 0.00 | 0.00 | 100 | 1008.1 |
| 20260506104507 | 44 | 88 | 9.0 | 14.0 | 0.00 | 0.00 | 0.00 | 100 | 1008.1 |
| 20260506104008 | 44 | 90 | 9.0 | 14.0 | 0.00 | 0.00 | 0.00 | 100 | 1008.1 |
| 20260506103508 | 44 | 99 | 9.0 | 14.0 | 0.00 | 0.00 | 0.00 | 100 | 1008.1 |
| 20260506102507 | 43 | 100 | 9.0 | 14.0 | 0.00 | 0.00 | 0.00 | 100 | 1008.1 |
| 20260506102008 | 43 | 82 | 9.0 | 14.0 | 0.00 | 0.00 | 0.00 | 100 | 1008.1 |